STARLINK-35610, 66428

Orbit data source: Space-Track

STARLINK-35610, 66428 is a payload satellite owned by SpaceX/Seattle (US) in LEO that was launched on Tue, 11 Nov 2025 UTC via an FALCON 9 launch vehicle from the Air Force Eastern Test Range (AFETR). Payload-class satellites include a variety of spacecraft equipped with specific instruments for various scientific and technological missions. These include communications satellites like Starlink; space stations such as the ISS; scientific satellites like the Hubble; Earth observation satellites from companies like Planet Labs, Umbra, and HawkEye 360; GPS; miniature CubeSats for education and research; and military/defense satellites.

Loading next visibility...
Identifier
66428, 2025-259G
Orbit
LEO
Country
Flag of USUS
Related business
Manufacturer
SpaceX/Seattle
Mission
Operational Commercial Communications
Bus & Motor
STARLINK V2MO, Unknown motor
Mass
575 kg wet, ~530 kg dry
Launch date (UTC)
2025-11-11 (7 months ago)
Launch vehicle
FALCON 9
Launch site
Air Force Eastern Test Range (AFETR)
Object type
Payload
Rocket body
Debris
Shape & HBR
Box + 2 Pan, 17.7 m
Radar Cross Section
36.964 m², Large (>1 m²)

Expand to show TLE details & history
Last TLE update: 18 hours ago

TLE from 18 hours ago
0 STARLINK-35610
1 66428U 25259G   26171.09362271  .00017651  00000-0  64894-3 0  9990
2 66428  43.0004  55.9386 0001514 266.3161  93.7517 15.27602777 35151
Epoch: 2026-06-20T02:14Z
TLE epoch observation values (Epoch: 2026-06-20T02:14:49.002Z)
Latitude
-0.00004°
Longitude
113.92119°
Altitude
482.824 km
Speed
7.626 km/s
True Right ascension
03h 43m 45s
True Declination
0° 00' 00"
Sunlit
Object was in daylight at epoch
Visualization orbit readout
Latitude
Unknown
Longitude
Unknown
Altitude
Unknown
Speed
Unknown
Apparent Right ascension
Unknown
Apparent Declination
Unknown
Sunlit
N/A
Visualization observer readout
Local Sidereal Time
07:17:04
Azimuth
Unknown
Elevation
Unknown
Doppler factor
Unknown
Orbital elements
Apogee altitude
485.965 km
Perigee altitude
483.887 km
Semi-major axis
6,863.063 km
Eccentricity
0.00015
Inclination
43.0004°
RAAN
55.9386°
Arg. of periapsis
266.3161°
True anomaly
93.76901°
Mean anomaly
93.7517°
Eccentric anomaly
93.76036°
Mean motion
3.81739 °/min
Orbital period
94.31 mins
BSTAR
0.00064894
Loading maneuver chart data...
Computing Atmospheric mass density...
Loading historical data...
Loading historical data...
Loading historical data...
Loading historical data...
Loading historical data...
Loading historical data...
Loading historical data...

Documentation

Showing up to 5 results
|